Temp
91 88 85 88 90 89 87 85 83 85 89 84 83 82 84 88 89 89 90 91 92 93 97 98 97 97 97 96 93 92 91 90 90 90 90 91 92 94 94 95 93 92 93 90
87 84 90 90 91 88 87 85 85 86 88 86 83 81 86 87 88 90 89 91 92 94 96 96 97 98 97 96 94 91 90 89 89 92 92 93 93 95 95 96 93 91 91 90
86 88 90 88 88 87 89 86 84 84 85 87 83 81 81 87 89 91 92 94 94 94 96 96 96 97 97 96 94 92 90 90 89 91 92 91 91 90 92 92 93 93 91 91
88 92 87 88 86 90 85 89 87 83 84 80 87 76 80 84 84 87 89 90 93 94 96 97 97 97 98 97 97 94 92 90 90 90 91 88 90 90 93 93 95 94 90 90
84 86 85 85 87 90 87 90 87 86 87 86 81 80 78 85 81 84 89 92 92 94 96 97 99 99 100 100 99 96 92 90 90 89 89 90 88 93 94 94 90 89 89 89
88 92 89 89 91 91 92 89 88 89 88 79 81 82 83 83 86 87 90 92 93 94 93 98 100 100 100 101 99 97 91 88 88 89 87 87 88 89 92 90 92 93 94 92
86 87 92 92 88 93 89 89 79 76 77 75 85 82 85 90 92 93 91 92 94 95 91 96 98 99 99 99 97 97 92 87 89 89 89 88 88 87 88 89 92 92 94 94
80 76 88 94 90 88 88 89 79 65 74 78 84 78 84 94 96 95 97 97 95 95 95 98 98 99 97 97 98 96 94 88 90 89 88 88 88 91 92 92 94 94 95 96
82 79 90 89 92 90 87 83 92 83 83 78 84 87 93 96 94 94 95 96 94 95 96 95 99 100 98 98 98 97 94 91 91 93 89 88 88 88 92 91 91 94 93 95
86 77 88 88 91 90 90 91 82 85 69 67 78 79 79 84 85 92 93 94 95 96 97 98 99 100 101 102 102 100 98 95 93 94 91 91 90 88 89 90 89 91 94 91
90 86 83 87 85 85 86 86 87 88 83 75 73 77 85 83 85 87 92 95 97 97 98 99 99 100 101 101 101 102 98 96 93 92 92 90 90 91 90 91 90 90 92 91
88 88 83 82 87 89 89 86 89 81 74 82 80 78 87 85 88 88 90 93 96 99 99 100 101 99 99 99 97 96 97 96 93 91 90 90 92 91 93 92 92 91 90 91
89 85 76 78 85 88 86 87 89 88 89 76 75 78 92 87 86 86 86 90 93 94 96 99 101 99 96 97 97 94 93 94 94 91 91 92 92 93 94 94 94 93 90 90
80 87 82 77 79 87 80 82 85 87 81 80 82 82 85 81 80 83 85 89 92 93 93 94 97 96 95 93 93 92 93 94 93 94 93 92 92 93 95 95 93 94 92 90
89 81 81 83 84 84 83 82 82 82 83 78 81 81 79 79 79 76 77 81 87 89 92 93 93 93 91 90 91 90 92 92 94 90 90 90 91 93 92 92 92 91 91 90
88 80 81 78 82 82 81 82 82 82 81 81 81 80 83 81 79 70 72 75 74 73 86 90 91 92 92 91 90 91 90 91 92 90 90 90 88 88 89 89 89 89 88 88
82 82 78 74 79 79 74 82 82 81 82 82 78 77 82 79 77 70 76 78 76 76 74 73 81 87 92 94 95 94 92 93 90 88 89 89 88 87 87 87 87 87 87 87
79 79 79 75 75 63 81 84 82 80 81 82 81 79 79 78 78 78 78 76 77 77 78 79 79 77 80 89 92 93 95 92 89 88 88 88 87 87 87 87 86 86 87 86
84 80 75 70 70 76 77 79 79 78 78 81 80 80 80 80 81 76 79 80 78 78 79 78 77 74 75 76 85 88 87 85 87 87 88 88 88 87 87 86 86 87 87 85
79 81 76 73 66 63 74 78 82 82 73 80 81 79 78 80 76 78 81 81 80 81 80 81 74 75 74 73 76 80 81 86 86 86 87 87 87 85 85 86 85 87 84 78
72 73 71 72 69 75 77 79 82 68 71 79 80 79 79 79 79 80 80 81 83 83 79 81 76 75 72 73 75 75 79 80 80 83 86 85 86 86 86 85 84 82 78 73
71 70 71 72 67 63 80 79 73 76 79 80 80 80 77 79 80 81 82 82 83 84 84 82 78 76 72 73 68 72 74 81 79 80 82 78 77 79 80 79 80 78 72 69
68 75 72 73 71 77 79 79 83 81 79 81 80 82 82 82 82 82 83 83 84 85 84 84 80 75 76 76 72 69 74 81 79 77 77 76 77 78 77 74 72 71 70 69
72 74 73 72 76 77 80 83 83 83 81 83 84 84 85 83 84 84 86 86 87 87 84 83 80 78 78 76 75 77 82 84 81 76 75 75 74 74 77 77 75 73 71 70
76 72 72 73 77 77 78 80 82 82 82 81 84 85 85 85 85 85 85 85 87 86 86 85 81 80 79 79 78 80 83 83 81 78 76 75 75 76 75 76 77 81 79 77
78 73 71 73 77 78 77 80 81 81 81 83 82 83 85 85 84 85 83 85 86 86 85 82 81 81 79 79 81 79 81 83 83 82 84 83 81 84 84 82 79 53 54 52
MSLP
1005.01 1004.00 1002.61 1002.65 1002.80 1002.64 1002.34 1002.08 1001.75 1002.25 1002.94 1003.72 1004.04 1004.58 1005.30 1005.88 1006.25 1006.61 1007.26 1007.81 1008.33 1008.71 1009.30 1009.99 1010.88 1011.68 1012.35 1013.06 1013.90 1014.59 1015.13 1015.69 1016.25 1016.43 1016.42 1016.38 1016.24 1016.31 1016.48 1016.44 1016.74 1017.07 1017.01 1017.29
1004.51 1003.25 1003.03 1003.37 1002.93 1002.48 1002.05 1001.60 1001.38 1002.02 1002.48 1003.02 1003.31 1003.83 1004.53 1005.33 1005.67 1005.92 1006.53 1007.07 1007.57 1008.09 1008.53 1009.35 1010.13 1010.90 1011.65 1012.47 1013.38 1014.22 1014.80 1015.43 1015.98 1015.98 1016.12 1016.04 1016.07 1016.02 1016.06 1016.10 1016.62 1017.02 1017.04 1017.22
1003.10 1002.84 1003.57 1003.26 1002.58 1001.94 1001.26 1001.42 1001.59 1001.59 1002.16 1002.24 1002.43 1002.49 1003.61 1004.57 1005.24 1005.70 1006.17 1006.51 1006.88 1007.32 1007.78 1008.60 1009.47 1010.20 1010.98 1011.71 1012.70 1013.47 1014.29 1014.86 1015.51 1015.61 1015.99 1016.28 1016.37 1016.45 1016.29 1016.30 1016.55 1016.61 1017.08 1017.13
1003.14 1002.95 1003.36 1002.90 1002.41 1002.13 1000.83 1001.85 1001.66 1001.65 1001.15 1000.72 1001.78 1000.91 1002.40 1003.36 1004.27 1004.89 1005.40 1005.93 1006.26 1006.76 1007.48 1007.93 1008.79 1009.70 1010.23 1011.02 1011.87 1012.93 1013.81 1014.42 1014.97 1015.42 1015.42 1015.74 1015.58 1015.56 1015.58 1015.92 1016.10 1016.65 1017.07 1016.99
1002.76 1003.10 1003.03 1002.48 1002.05 1002.20 1001.54 1002.00 1001.63 1001.17 1000.43 1000.26 1000.92 1000.49 1001.62 1002.32 1003.00 1003.66 1004.38 1004.97 1005.85 1006.43 1006.89 1007.26 1008.04 1008.80 1009.48 1010.28 1011.14 1012.11 1013.22 1013.95 1014.37 1014.85 1015.13 1015.37 1015.56 1015.36 1015.60 1015.79 1016.37 1016.74 1016.80 1016.92
1002.98 1003.51 1003.36 1002.48 1002.28 1002.30 1002.14 1001.70 1001.11 1000.45 999.79 998.89 1000.15 999.87 999.36 1000.78 1001.18 1002.06 1003.20 1004.00 1004.87 1005.72 1006.46 1006.80 1007.39 1008.19 1008.84 1009.62 1010.57 1011.50 1012.61 1013.54 1014.08 1014.49 1015.03 1015.14 1015.17 1015.53 1015.42 1015.89 1015.87 1016.00 1016.20 1016.55
1002.26 1002.49 1002.65 1002.80 1002.19 1001.74 1001.87 1000.48 999.27 998.92 998.53 998.63 999.92 999.52 999.15 999.95 1000.51 1000.79 1001.84 1003.07 1004.12 1005.01 1006.19 1006.35 1006.78 1007.50 1008.33 1009.07 1010.07 1010.98 1012.05 1012.94 1013.47 1013.99 1014.44 1014.84 1015.14 1015.50 1015.75 1015.92 1015.74 1015.66 1015.79 1015.98
1001.30 1001.42 1001.82 1001.85 1001.77 1000.78 1000.59 1000.26 999.49 998.96 998.43 998.58 999.63 998.77 999.35 999.91 1000.20 1000.71 1001.00 1002.06 1003.33 1004.18 1005.39 1005.72 1006.28 1007.09 1008.05 1008.87 1009.57 1010.38 1011.20 1012.22 1012.75 1013.31 1013.79 1014.37 1014.90 1015.07 1015.30 1015.45 1015.37 1015.50 1015.51 1015.62
1001.50 1001.24 1001.94 1002.09 1001.79 1001.73 1000.41 1000.24 1000.04 999.27 999.55 999.15 998.92 999.09 999.56 1000.07 1000.40 1000.67 1001.03 1001.76 1002.72 1003.51 1004.32 1005.31 1005.81 1006.57 1007.36 1008.13 1008.95 1009.74 1010.55 1011.49 1012.02 1012.47 1013.32 1013.81 1014.37 1014.70 1014.54 1014.94 1015.30 1015.42 1015.65 1015.59
1002.06 1001.48 1001.64 1002.00 1001.98 1001.86 1001.09 1000.88 999.85 999.46 999.21 998.95 999.06 999.71 1000.51 1001.40 1001.75 1001.44 1001.44 1001.85 1002.51 1003.34 1004.00 1004.71 1005.31 1005.84 1006.65 1007.30 1008.06 1008.95 1009.82 1010.59 1011.19 1011.83 1012.59 1012.99 1013.48 1014.02 1014.34 1014.64 1014.96 1015.01 1015.14 1015.67
1002.55 1001.70 1001.56 1001.73 1001.30 1000.75 1001.13 1000.30 1000.13 999.73 1000.00 999.39 999.70 1000.52 1002.49 1002.84 1003.02 1002.87 1002.45 1002.16 1002.24 1002.78 1003.38 1003.95 1004.74 1005.57 1006.20 1006.95 1007.51 1008.22 1009.20 1009.90 1010.70 1011.31 1011.77 1012.27 1012.63 1013.18 1013.76 1014.03 1014.33 1014.64 1014.89 1015.22
1003.32 1001.67 1001.01 1001.52 1002.23 1002.05 1001.37 1000.67 1000.08 999.20 1000.21 1000.58 1000.97 1001.81 1003.53 1004.22 1004.14 1004.11 1003.63 1003.32 1002.82 1002.70 1003.13 1003.62 1004.17 1005.28 1005.96 1006.59 1007.57 1008.19 1008.65 1009.36 1010.11 1010.72 1011.25 1011.62 1011.97 1012.49 1012.81 1013.30 1013.62 1014.01 1014.33 1014.64
1003.39 1002.18 1001.37 1001.65 1002.00 1002.01 1001.16 1001.34 1001.10 1000.52 1000.41 1000.58 1001.30 1002.07 1003.32 1004.79 1005.11 1005.20 1004.98 1004.44 1003.81 1003.69 1003.67 1003.57 1003.85 1004.69 1005.76 1006.47 1007.00 1007.88 1008.62 1009.06 1009.64 1010.37 1010.82 1011.03 1011.33 1011.69 1011.99 1012.26 1012.80 1013.25 1013.72 1014.04
1004.50 1002.28 1001.30 1000.82 1000.90 1000.73 1001.49 1001.74 1001.84 1001.15 1000.56 1000.73 1001.53 1002.16 1003.56 1005.68 1006.37 1006.49 1006.08 1005.31 1004.70 1004.31 1004.36 1004.57 1004.45 1004.88 1005.69 1006.41 1006.93 1007.63 1008.29 1008.85 1009.32 1009.73 1010.19 1010.44 1010.58 1010.90 1011.17 1011.49 1012.04 1012.35 1012.87 1013.33
1003.84 1002.32 1002.64 1002.32 1002.11 1002.01 1001.92 1001.96 1002.17 1001.85 1002.25 1002.40 1002.63 1003.52 1005.61 1007.06 1007.84 1008.59 1008.48 1007.54 1006.28 1005.64 1005.22 1005.25 1005.42 1005.69 1006.37 1006.72 1007.03 1007.53 1007.93 1008.29 1008.71 1009.32 1009.63 1009.83 1010.10 1010.30 1010.76 1011.01 1011.32 1011.78 1012.19 1012.61
1003.96 1003.26 1003.25 1002.69 1002.93 1002.73 1002.39 1002.72 1002.80 1002.99 1003.24 1003.35 1003.96 1004.53 1006.81 1008.11 1009.06 1009.97 1009.78 1009.13 1008.77 1008.33 1007.16 1006.76 1006.56 1006.57 1006.70 1007.05 1007.28 1007.43 1007.67 1007.93 1008.31 1008.60 1008.93 1009.37 1009.78 1010.11 1010.28 1010.54 1010.81 1011.16 1011.62 1012.26
1004.81 1003.70 1003.49 1002.68 1003.37 1003.38 1003.08 1002.80 1003.20 1003.71 1004.23 1004.35 1004.29 1006.33 1007.37 1008.46 1009.47 1010.45 1010.23 1009.96 1009.88 1009.60 1009.37 1009.07 1008.55 1007.88 1007.37 1007.08 1006.97 1007.28 1007.60 1007.88 1007.94 1008.04 1008.30 1008.71 1009.12 1009.44 1009.71 1010.09 1010.46 1010.75 1011.21 1011.72
1005.52 1004.76 1004.14 1003.59 1004.09 1003.74 1003.26 1004.40 1004.67 1004.85 1005.15 1005.77 1006.25 1007.31 1008.26 1009.08 1009.97 1010.58 1010.95 1010.93 1010.81 1010.58 1010.23 1009.92 1009.88 1009.77 1009.25 1008.56 1008.33 1007.98 1007.69 1007.73 1007.99 1008.10 1008.21 1008.23 1008.46 1008.73 1009.06 1009.45 1009.79 1010.23 1010.62 1010.89
1006.02 1005.29 1004.41 1004.34 1004.19 1003.94 1004.59 1005.23 1005.42 1005.38 1005.56 1006.77 1007.11 1007.88 1008.58 1009.30 1009.70 1010.50 1010.91 1010.97 1011.09 1010.99 1010.67 1010.70 1010.49 1010.06 1010.03 1010.50 1009.76 1009.16 1008.58 1008.56 1008.21 1008.21 1008.30 1008.33 1008.41 1008.56 1008.80 1008.98 1009.28 1009.73 1010.16 1010.52
1006.32 1006.17 1005.42 1004.81 1004.61 1004.24 1005.47 1006.53 1006.92 1006.78 1006.26 1007.78 1008.08 1008.39 1008.83 1009.12 1008.73 1009.27 1010.45 1010.62 1010.80 1010.75 1010.52 1010.38 1010.37 1009.89 1009.70 1009.83 1010.70 1010.48 1009.91 1009.53 1008.84 1008.44 1008.39 1008.45 1008.38 1008.56 1008.70 1008.69 1008.94 1009.25 1009.87 1010.87
1006.36 1006.14 1005.63 1005.26 1005.35 1005.31 1006.78 1007.25 1007.49 1007.24 1007.96 1008.46 1008.64 1008.94 1009.14 1008.98 1009.43 1009.86 1010.27 1010.40 1010.55 1010.57 1010.66 1010.63 1011.02 1010.50 1008.73 1008.68 1010.38 1011.11 1010.66 1010.66 1010.56 1009.66 1008.83 1008.66 1008.75 1008.74 1008.63 1008.69 1009.07 1009.52 1010.08 1011.02
1006.64 1006.15 1005.69 1005.77 1005.96 1006.43 1007.57 1007.79 1007.60 1008.39 1008.78 1008.90 1009.08 1009.30 1009.52 1009.59 1009.78 1009.87 1009.99 1009.97 1010.07 1010.11 1010.36 1010.71 1010.82 1010.66 1011.16 1010.26 1009.77 1011.83 1009.90 1011.55 1011.08 1010.18 1009.72 1009.46 1009.63 1009.61 1009.55 1009.39 1009.63 1010.14 1010.77 1011.27
1007.68 1007.25 1006.76 1006.79 1006.84 1008.10 1008.47 1008.46 1008.70 1008.92 1008.95 1009.09 1009.26 1009.30 1009.37 1009.25 1009.30 1009.53 1009.45 1009.39 1009.33 1009.47 1009.80 1009.96 1010.73 1011.16 1011.08 1010.68 1010.61 1011.83 1011.65 1011.28 1010.90 1010.34 1010.47 1010.27 1010.07 1009.95 1010.15 1010.25 1010.19 1010.81 1011.57 1011.91
1008.43 1008.64 1007.81 1007.85 1007.83 1008.22 1008.57 1008.72 1008.87 1008.99 1009.13 1009.13 1009.16 1009.14 1009.17 1009.07 1009.00 1008.94 1008.85 1008.78 1008.63 1008.79 1009.19 1009.64 1010.30 1010.84 1010.93 1010.85 1010.38 1010.70 1010.37 1010.15 1010.05 1010.66 1010.94 1010.72 1010.71 1010.65 1010.37 1010.68 1010.64 1010.87 1011.63 1012.09
1008.29 1008.92 1008.06 1007.81 1007.94 1008.57 1008.76 1008.88 1008.93 1009.04 1009.20 1009.19 1009.10 1009.07 1008.90 1008.87 1008.82 1008.80 1008.71 1008.65 1008.52 1008.54 1008.70 1009.07 1009.68 1009.97 1010.27 1010.56 1010.69 1010.29 1009.47 1009.86 1010.31 1010.58 1010.88 1010.83 1010.68 1010.94 1011.01 1010.87 1010.71 1010.62 1011.02 1011.40
1008.16 1008.13 1008.08 1007.26 1007.99 1008.31 1008.62 1009.04 1009.24 1009.11 1009.05 1009.12 1009.07 1009.00 1009.01 1008.91 1008.73 1008.70 1008.68 1008.71 1008.63 1008.50 1008.59 1008.89 1009.15 1009.47 1009.80 1010.10 1010.26 1010.40 1009.91 1009.54 1009.83 1009.86 1010.05 1010.01 1010.73 1010.26 1010.40 1010.86 1011.12 1011.69 1011.98 1012.22
Wind_Speed
6 9 6 9 9 10 11 10 6 7 4 8 8 6 9 14 16 16 17 18 19 19 19 18 17 15 14 13 13 13 13 11 9 8 8 7 7 6 5 5 4 5 4 3
9 11 1 5 8 8 8 8 7 4 3 7 5 8 11 14 16 17 18 18 19 20 20 19 17 16 16 15 14 14 14 13 11 8 7 6 5 5 5 4 3 5 4 3
13 7 2 5 7 9 3 10 8 8 3 4 5 8 13 15 13 15 16 18 18 20 20 20 18 17 16 15 16 16 15 14 12 11 7 6 5 5 6 6 6 4 4 3
9 1 9 12 10 8 7 6 5 1 8 8 3 3 10 14 16 18 18 17 18 19 19 19 19 17 17 16 15 15 15 15 13 13 10 11 8 7 6 6 4 2 4 4
4 4 7 12 8 5 8 6 6 5 10 9 7 8 8 10 14 19 20 20 19 18 20 20 20 18 15 16 14 14 14 15 14 14 12 10 10 6 6 5 3 4 4 5
12 3 6 6 4 7 10 10 10 8 9 6 6 9 12 7 9 16 20 21 20 20 19 20 18 17 16 14 13 13 14 14 15 14 14 13 10 9 6 5 4 4 4 5
11 14 13 7 12 9 9 13 6 4 6 6 3 8 11 5 2 6 18 21 20 20 18 19 20 18 15 14 14 12 14 15 16 16 15 14 13 11 9 7 7 5 5 4
5 11 15 11 15 8 6 10 9 4 2 4 3 2 10 8 3 4 10 18 21 21 20 20 20 16 15 15 15 15 15 14 16 16 16 13 12 9 9 9 8 7 5 3
3 4 7 3 3 6 5 10 7 9 5 8 3 8 13 13 13 8 8 13 19 21 21 21 20 18 16 16 15 15 15 15 16 17 14 14 13 13 10 9 8 8 7 4
2 5 2 9 4 4 7 4 7 5 2 5 7 3 10 10 13 11 6 10 14 16 19 20 19 19 17 17 17 17 16 16 16 15 14 13 14 14 12 10 11 10 8 7
8 7 9 6 3 4 7 9 2 3 6 3 4 8 8 10 8 12 9 1 11 14 17 18 18 17 17 16 15 15 15 15 14 14 14 14 14 14 13 12 12 12 11 10
7 7 2 9 6 2 2 5 9 7 9 3 6 5 10 12 10 10 10 6 3 8 13 14 15 15 16 15 14 12 13 14 15 14 14 15 14 13 14 14 14 12 12 12
6 8 8 9 9 5 3 3 3 5 2 3 8 8 8 14 12 11 12 11 5 4 8 11 13 14 14 14 14 14 13 13 13 13 14 14 14 14 15 15 15 14 13 13
4 5 9 4 5 5 7 4 1 8 7 5 7 10 17 16 14 13 14 13 9 2 6 8 9 10 10 11 11 11 12 12 11 13 13 14 15 15 15 14 14 14 13 14
6 4 4 2 2 2 3 4 3 6 7 8 12 10 12 11 13 14 15 18 16 12 8 4 5 5 6 9 11 11 12 11 12 12 12 13 13 13 13 12 13 14 13 13
4 3 5 5 3 4 7 3 4 3 1 4 4 5 8 9 11 12 12 12 13 16 17 13 8 3 2 6 9 10 11 12 12 13 13 12 12 12 12 12 13 13 13 12
8 5 7 12 5 7 10 11 6 3 1 7 7 9 5 8 10 9 10 13 14 14 17 18 18 17 14 9 5 8 10 10 12 13 13 12 12 13 12 12 12 12 11 11
10 8 5 10 3 14 6 5 2 5 1 3 5 5 8 8 8 8 9 7 11 12 14 15 16 16 19 20 18 12 12 6 9 10 11 11 11 12 11 11 11 10 10 11
10 10 8 9 11 9 7 4 2 5 8 4 4 5 5 6 9 6 6 7 8 6 6 7 8 11 11 17 20 19 12 4 5 7 8 8 9 9 8 9 9 8 8 8
5 8 9 4 14 13 11 7 2 3 6 4 2 2 3 4 8 7 6 5 2 1 6 5 2 4 10 12 15 17 15 13 8 7 5 4 5 6 7 7 7 6 4 9
5 5 10 9 8 4 6 4 1 10 6 5 3 2 2 4 5 5 5 7 8 6 5 8 7 6 5 11 11 14 16 13 13 10 6 6 4 1 3 4 2 4 8 10
5 5 5 4 5 7 4 5 6 6 4 3 4 5 3 1 2 5 10 10 10 10 9 5 9 6 4 6 8 5 22 14 11 10 7 5 5 3 3 4 4 5 7 8
5 4 6 6 7 7 3 3 1 3 4 2 3 3 2 3 3 4 8 11 13 13 11 10 8 6 5 7 4 9 20 11 9 7 6 5 5 5 5 6 7 7 5 5
4 2 5 3 6 4 2 1 3 3 5 6 7 6 5 4 3 5 8 9 11 10 9 10 8 10 10 8 11 11 10 7 6 4 3 4 4 4 6 5 5 6 6 5
5 4 6 7 4 6 5 3 2 1 1 4 5 7 5 3 3 5 6 5 7 8 8 7 9 11 12 8 10 11 5 4 5 2 3 4 4 4 4 4 4 4 4 2
10 10 8 3 7 1 6 4 2 2 1 1 1 3 1 4 5 4 3 4 4 6 5 7 8 10 9 4 3 4 6 5 5 5 5 4 4 3 4 4 5 13 10 8
Wind_Direction
198 247 242 8 336 321 317 318 331 45 119 193 200 185 169 174 189 179 185 185 189 192 185 184 188 190 194 191 190 193 195 188 192 199 201 207 217 209 224 233 248 272 269 217
203 239 8 324 297 302 314 276 63 121 118 213 154 220 185 187 195 189 187 191 192 193 188 189 187 193 197 195 197 197 203 194 200 199 211 221 225 224 237 243 269 275 263 231
250 85 85 270 300 298 138 6 8 1 133 195 275 209 190 190 203 200 199 195 197 195 194 185 193 196 200 200 200 202 202 199 202 216 202 202 231 248 232 232 232 225 250 251
254 286 260 264 267 285 285 10 338 239 278 14 290 40 176 187 200 202 200 204 198 197 200 192 192 201 204 204 200 203 204 204 198 201 209 215 226 226 217 226 212 175 221 203
115 223 220 239 257 302 346 344 315 289 279 275 141 251 102 183 204 207 206 199 201 196 197 199 192 196 206 201 201 198 201 206 207 199 218 207 226 214 223 217 163 235 194 212
274 109 271 270 279 249 303 274 237 231 265 238 54 292 127 156 217 205 203 205 196 198 202 199 199 193 202 201 199 194 194 203 203 201 203 214 213 230 233 212 217 224 202 179
213 226 232 242 258 217 234 251 274 254 197 40 58 263 56 69 161 200 197 196 198 195 193 202 199 193 198 201 198 197 190 198 201 199 202 209 211 208 222 233 222 226 212 198
257 175 196 179 234 317 236 318 301 271 298 61 150 10 72 19 13 210 183 190 190 196 189 204 198 193 194 204 203 200 191 197 200 202 203 205 210 213 216 216 246 227 241 221
229 131 131 200 229 261 160 239 351 293 208 259 65 113 95 47 48 82 162 176 186 194 193 202 201 202 201 205 208 206 201 199 201 203 202 204 204 217 214 225 212 227 234 237
80 206 124 123 181 92 290 17 214 202 228 288 125 211 61 18 21 27 116 171 182 197 199 198 207 204 206 206 210 207 204 204 203 208 203 207 207 208 214 214 220 231 234 221
259 271 142 183 336 76 166 199 198 347 312 311 259 96 36 20 12 9 14 159 182 190 198 203 201 209 207 214 211 208 207 205 201 202 205 211 208 208 209 215 218 220 222 218
216 287 192 91 112 44 318 41 277 282 146 58 316 62 71 33 5 354 5 12 329 202 194 201 202 203 213 204 211 213 209 204 205 203 208 211 213 209 211 217 219 217 218 217
168 241 154 182 168 182 240 72 350 316 281 128 313 92 94 34 20 7 355 343 338 226 208 197 196 193 202 212 207 205 213 210 204 203 210 219 214 214 217 219 221 214 216 217
271 275 290 308 50 97 174 179 348 302 293 30 308 359 38 20 18 21 8 3 5 8 194 209 204 191 193 204 203 204 213 212 208 208 212 222 221 219 220 221 221 220 214 218
285 261 271 15 73 215 187 198 204 288 357 305 357 335 32 29 33 29 17 15 26 45 46 104 207 200 214 207 211 205 213 209 205 210 222 227 232 229 221 224 219 221 223 220
316 254 249 210 205 238 238 211 258 308 326 266 291 93 48 54 66 39 31 43 42 27 29 59 66 57 215 238 232 222 215 213 208 208 215 221 226 232 230 224 220 219 219 223
288 282 233 252 189 244 243 232 228 347 310 321 331 49 57 57 54 61 52 56 53 52 46 26 28 34 29 12 298 260 236 227 214 212 212 214 217 223 228 231 233 230 224 223
273 254 248 263 180 236 46 61 22 290 36 61 89 84 80 83 85 84 68 58 53 61 58 55 48 29 13 19 12 10 324 239 244 236 233 221 220 225 226 226 229 228 219 210
236 252 239 251 229 244 156 151 223 258 107 61 76 106 113 135 140 101 99 72 55 40 41 55 46 50 40 14 356 360 5 340 272 261 257 248 243 243 239 237 234 228 219 207
200 248 258 193 259 255 64 90 75 261 190 87 32 93 96 204 250 112 206 169 126 24 19 3 317 88 32 26 357 350 354 336 2 7 343 291 255 244 241 231 221 214 198 136
166 210 226 214 252 127 80 80 185 232 69 71 54 71 193 262 8 112 188 227 233 235 291 351 331 299 109 75 1 336 331 340 334 339 19 30 20 170 191 183 186 150 124 144
240 251 203 235 247 229 100 155 296 56 133 62 82 116 128 322 254 236 232 248 247 261 253 267 298 329 328 98 100 295 313 317 320 335 358 48 55 46 70 118 111 112 131 143
241 316 345 319 49 88 77 16 49 314 310 274 246 192 242 222 216 219 243 242 252 259 253 267 235 261 266 294 143 212 248 300 308 335 345 31 54 85 91 102 107 105 116 147
184 256 255 257 119 109 37 267 245 235 268 260 234 244 239 281 310 272 254 254 260 260 253 246 229 226 235 240 253 256 265 276 313 307 350 48 65 84 107 115 117 120 139 152
16 163 234 242 232 133 124 80 85 108 258 239 231 243 237 309 341 15 344 294 277 279 277 241 241 247 254 242 230 231 233 237 248 236 167 124 112 118 106 86 73 112 111 84
214 229 222 277 79 285 107 120 149 214 213 167 169 183 223 309 321 340 300 323 320 313 283 260 238 237 244 200 239 289 245 214 244 202 178 123 155 137 127 135 109 51 46 43